Weather History for Soenderborg, Denmark

Change the Weather History Date:

Friday, October 19, 2012

  Actual Average Record
Temperature  
Mean Temperature 58 °F -  
Max Temperature 64 °F 47 °F 64 °F (2012)
Min Temperature 53 °F 41 °F 33 °F (2002)
Degree Days  
Heating Degree Days 6    
Growing Degree Days 8 (Base 50)    
Moisture  
Dew Point 55 °F    
Average Humidity 91    
Maximum Humidity 100    
Minimum Humidity 77    
Precipitation  
Precipitation 0.00 in - - ()
Sea Level Pressure  
Sea Level Pressure 29.86 in    
Wind  
Wind Speed 3 mph ()    
Max Wind Speed 7 mph    
Max Gust Speed -    
Visibility 4.0 miles    
Events Rain    
Averages and records for this station are not official NWS values.
T = Trace of Precipitation, MM = Missing Value Source: Averaged Metar Reports

Daily Weather History Graph

Daily Weather History Graph

Search for Another Location

Airport:

Trip Planner

Search our weather history database for the weather conditions in past years. The results will help you decide how hot, cold, wet, or windy it might be!

Date:

Astronomy

Oct. 19, 2012 Rise Set
Actual Time 7:58 AM CEST 6:11 PM CEST
Civil Twilight 7:21 AM CEST 6:48 PM CEST
Nautical Twilight 6:39 AM CEST 7:30 PM CEST
Astronomical Twilight 5:57 AM CEST 8:12 PM CEST
Moon 1:02 PM CEST (10/19) 8:55 PM CEST (10/19)
Length of Visible Light 11h 26m
Length of Day
10h 12m
Waxing Crescent, 21% of the Moon is Illuminated
Oct 19
Waxing Crescent
Oct 22
First Quarter
Oct 29
Full
Nov 7
Last Quarter
Nov 13
New

Hourly Weather History & Observations

Time (CEST) Temp. Dew Point Humidity Pressure Visibility Wind Dir Wind Speed Gust Speed Precip Events Conditions
5:51 AM 55.4 °F 53.6 °F 94% 29.86 in 5.0 mi South 4.6 mph - N/A Rain Light Rain
6:50 AM 53.6 °F 51.8 °F 94% 29.83 in 3.1 mi SE 2.3 mph - N/A Rain Light Rain
7:50 AM 53.6 °F 53.6 °F 100% 29.83 in 2.2 mi SE 4.6 mph - N/A Rain Light Rain
8:20 AM 53.6 °F 53.6 °F 100% 29.83 in 3.7 mi SE 6.9 mph - N/A   Unknown
8:50 AM 55.4 °F 53.6 °F 94% 29.86 in 3.7 mi SSE 5.8 mph - N/A   Unknown
9:50 AM 57.2 °F 53.6 °F 88% 29.86 in - South 2.3 mph - N/A   Clear
10:50 AM 59.0 °F 55.4 °F 88% 29.86 in - SSE 2.3 mph - N/A   Clear
11:50 AM 59.0 °F 55.4 °F 88% 29.86 in 6.2 mi SSE 1.2 mph - N/A   Mostly Cloudy
12:50 PM 59.0 °F 57.2 °F 94% 29.86 in - Variable 1.2 mph - N/A   Clear
1:50 PM 60.8 °F 55.4 °F 82% 29.86 in - ESE 3.5 mph - N/A   Clear
2:50 PM 64.4 °F 57.2 °F 77% 29.86 in - SE 3.5 mph - N/A   Clear
3:50 PM 64.4 °F 57.2 °F 77% 29.86 in - SE 4.6 mph - N/A   Clear
4:50 PM 64.4 °F 59.0 °F 83% 29.86 in - Variable 1.2 mph - N/A   Clear
5:51 PM 59.0 °F 55.4 °F 88% 29.86 in - SSW 1.2 mph - N/A   Clear
6:51 PM 57.2 °F 55.4 °F 94% 29.89 in - SSE 5.8 mph - N/A   Clear
7:52 PM 55.4 °F 53.6 °F 94% 29.89 in - Calm Calm - N/A   Clear
8:50 PM 55.4 °F 53.6 °F 94% 29.89 in - ESE 4.6 mph - N/A   Clear
9:50 PM 57.2 °F 55.4 °F 94% 29.89 in - South 4.6 mph - N/A   Clear
10:51 PM 55.4 °F 53.6 °F 94% 29.89 in - SSE 4.6 mph - N/A   Clear
11:51 PM 55.4 °F 53.6 °F 94% 29.89 in - SE 2.3 mph - N/A   Clear